Location: Bovenkerk
(52.2915°N, 4.8336°E)
Time: 03:21:20
(UTC+00:00)

Cosmos 1825 - Pass Details

Date: 09 April 2020
Orbit: 502 x 509 km, 82.5° (Epoch: 04 June)

Event Time Altitude Azimuth Distance (km) Brightness Sun altitude
Rises 21:34:50 0° 343° (NNW) 2,632 7.0 -23.9°
Reaches altitude 10° 21:37:03 10° 336° (NNW) 1,740 5.9 -24.1°
Maximum altitude 21:40:37 39° 267° (W) 771 3.2 -24.4°
Enters shadow 21:40:39 39° 265° (W) 771 3.2 -24.4°
